Time,TemperatureF,DewpointF,PressureIn,WindDirection,WindDirectionDegrees,WindSpeedMPH,WindSpeedGustMPH,Humidity,HourlyPrecipIn,Conditions,Clouds,dailyrainin,SoftwareType,DateUTC
2013-03-23 00:00:00,29.9,21.0,29.57,WNW,292,10.5,20.3,65,0.00,,,0.00,Rainwise IP-100,2013-03-23 04:00:00,
2013-03-23 00:05:00,29.8,21.0,29.57,NW,315,8.4,18.4,65,0.00,,,0.00,Rainwise IP-100,2013-03-23 04:05:00,
2013-03-23 00:10:00,29.8,21.0,29.57,West,270,10.0,18.7,65,0.00,,,0.00,Rainwise IP-100,2013-03-23 04:10:00,
2013-03-23 00:15:00,29.8,21.0,29.57,West,270,7.0,16.3,65,0.00,,,0.00,Rainwise IP-100,2013-03-23 04:15:00,
2013-03-23 00:20:00,29.7,21.0,29.57,WNW,292,8.6,15.4,66,0.00,,,0.00,Rainwise IP-100,2013-03-23 04:20:00,
2013-03-23 00:25:00,29.6,21.0,29.57,West,270,8.2,17.0,66,0.00,,,0.00,Rainwise IP-100,2013-03-23 04:25:00,
2013-03-23 00:30:00,29.5,21.0,29.57,NW,315,10.3,16.6,67,0.00,,,0.00,Rainwise IP-100,2013-03-23 04:30:00,
2013-03-23 00:35:00,29.3,21.0,29.57,WNW,292,6.8,17.5,67,0.00,,,0.00,Rainwise IP-100,2013-03-23 04:35:00,
2013-03-23 00:40:00,29.2,21.0,29.57,NW,315,9.1,17.0,68,0.00,,,0.00,Rainwise IP-100,2013-03-23 04:40:00,
2013-03-23 00:41:00,29.2,21.0,29.57,WNW,292,9.3,17.0,68,0.00,,,0.00,Rainwise IP-100,2013-03-23 04:41:00,
2013-03-23 00:46:00,29.3,21.0,29.57,WNW,292,12.8,15.9,68,0.00,,,0.00,Rainwise IP-100,2013-03-23 04:46:00,
2013-03-23 00:51:00,29.3,21.0,29.56,West,270,14.9,20.5,67,0.00,,,0.00,Rainwise IP-100,2013-03-23 04:51:00,
2013-03-23 00:56:00,29.4,21.0,29.57,WNW,292,11.0,18.4,67,0.00,,,0.00,Rainwise IP-100,2013-03-23 04:56:00,
2013-03-23 01:01:00,29.5,21.0,29.56,West,270,15.4,21.5,67,0.00,,,0.00,Rainwise IP-100,2013-03-23 05:01:00,
2013-03-23 01:06:00,29.5,21.0,29.55,NNW,337,16.3,20.5,67,0.00,,,0.00,Rainwise IP-100,2013-03-23 05:06:00,
2013-03-23 01:11:00,29.5,21.0,29.56,WNW,292,12.6,21.2,67,0.00,,,0.00,Rainwise IP-100,2013-03-23 05:11:00,
2013-03-23 01:16:00,29.5,21.0,29.56,NW,315,9.3,20.1,67,0.00,,,0.00,Rainwise IP-100,2013-03-23 05:16:00,
2013-03-23 01:21:00,29.4,21.0,29.56,NW,315,10.7,18.0,67,0.00,,,0.00,Rainwise IP-100,2013-03-23 05:21:00,
2013-03-23 01:26:00,29.3,21.0,29.56,WNW,292,15.4,20.3,67,0.00,,,0.00,Rainwise IP-100,2013-03-23 05:26:00,
2013-03-23 01:31:00,29.3,21.0,29.55,West,270,10.0,21.2,67,0.00,,,0.00,Rainwise IP-100,2013-03-23 05:31:00,
2013-03-23 01:36:00,29.3,21.0,29.55,WNW,292,10.3,18.9,67,0.00,,,0.00,Rainwise IP-100,2013-03-23 05:36:00,
2013-03-23 01:41:00,29.2,21.0,29.54,WNW,292,13.3,21.7,68,0.00,,,0.00,Rainwise IP-100,2013-03-23 05:41:00,
2013-03-23 01:46:00,29.2,21.0,29.54,WNW,292,15.9,21.9,67,0.00,,,0.00,Rainwise IP-100,2013-03-23 05:46:00,
2013-03-23 01:51:00,29.2,21.0,29.54,West,270,13.3,20.8,67,0.00,,,0.00,Rainwise IP-100,2013-03-23 05:51:00,
2013-03-23 01:56:00,29.1,21.0,29.53,West,270,17.7,22.4,67,0.00,,,0.00,Rainwise IP-100,2013-03-23 05:56:00,
2013-03-23 02:01:00,29.0,21.0,29.53,West,270,14.2,20.8,66,0.00,,,0.00,Rainwise IP-100,2013-03-23 06:01:00,
2013-03-23 02:06:00,28.9,18.0,29.53,West,270,16.6,21.9,65,0.00,,,0.00,Rainwise IP-100,2013-03-23 06:06:00,
2013-03-23 02:11:00,28.8,18.0,29.53,NW,315,10.5,19.6,65,0.00,,,0.00,Rainwise IP-100,2013-03-23 06:11:00,
2013-03-23 02:16:00,28.7,18.0,29.53,WNW,292,13.8,19.4,65,0.00,,,0.00,Rainwise IP-100,2013-03-23 06:16:00,
2013-03-23 02:21:00,28.6,18.0,29.53,WNW,292,19.8,21.9,65,0.00,,,0.00,Rainwise IP-100,2013-03-23 06:21:00,
2013-03-23 02:26:00,28.5,18.0,29.53,WNW,292,13.1,20.8,64,0.00,,,0.00,Rainwise IP-100,2013-03-23 06:26:00,
2013-03-23 02:31:00,28.4,18.0,29.53,NW,315,12.6,20.5,64,0.00,,,0.00,Rainwise IP-100,2013-03-23 06:31:00,
2013-03-23 02:36:00,28.3,18.0,29.53,West,270,11.9,18.0,65,0.00,,,0.00,Rainwise IP-100,2013-03-23 06:36:00,
2013-03-23 02:41:00,28.2,18.0,29.53,WNW,292,9.3,15.6,65,0.00,,,0.00,Rainwise IP-100,2013-03-23 06:41:00,
2013-03-23 02:46:00,28.1,18.0,29.53,WNW,292,11.4,22.9,65,0.00,,,0.00,Rainwise IP-100,2013-03-23 06:46:00,
2013-03-23 02:51:00,28.1,18.0,29.53,WNW,292,10.3,19.1,65,0.00,,,0.00,Rainwise IP-100,2013-03-23 06:51:00,
2013-03-23 02:57:00,28.0,18.0,29.52,WNW,292,13.5,19.6,65,0.00,,,0.00,Rainwise IP-100,2013-03-23 06:57:00,
2013-03-23 03:02:00,28.0,18.0,29.53,WNW,292,14.2,20.5,65,0.00,,,0.00,Rainwise IP-100,2013-03-23 07:02:00,
2013-03-23 03:07:00,27.8,18.0,29.52,West,270,10.7,17.3,65,0.00,,,0.00,Rainwise IP-100,2013-03-23 07:07:00,
2013-03-23 03:12:00,27.7,18.0,29.52,WNW,292,9.6,18.4,66,0.00,,,0.00,Rainwise IP-100,2013-03-23 07:12:00,
2013-03-23 03:17:00,27.6,18.0,29.52,West,270,12.1,19.4,66,0.00,,,0.00,Rainwise IP-100,2013-03-23 07:17:00,
2013-03-23 03:22:00,27.5,18.0,29.53,West,270,15.4,18.2,66,0.00,,,0.00,Rainwise IP-100,2013-03-23 07:22:00,
2013-03-23 03:27:00,27.5,18.0,29.52,WNW,292,9.8,21.5,66,0.00,,,0.00,Rainwise IP-100,2013-03-23 07:27:00,
2013-03-23 03:32:00,27.4,18.0,29.52,WNW,292,8.2,17.3,66,0.00,,,0.00,Rainwise IP-100,2013-03-23 07:32:00,
2013-03-23 03:37:00,27.4,18.0,29.52,West,270,19.4,20.1,67,0.00,,,0.00,Rainwise IP-100,2013-03-23 07:37:00,
2013-03-23 03:42:00,27.4,18.0,29.52,NW,315,18.4,23.1,67,0.00,,,0.00,Rainwise IP-100,2013-03-23 07:42:00,
2013-03-23 03:47:00,27.4,18.0,29.51,WNW,292,18.9,22.9,67,0.00,,,0.00,Rainwise IP-100,2013-03-23 07:47:00,
2013-03-23 03:52:00,27.4,18.0,29.52,WNW,292,9.3,24.0,67,0.00,,,0.00,Rainwise IP-100,2013-03-23 07:52:00,
2013-03-23 03:57:00,27.4,18.0,29.52,West,270,11.2,24.0,67,0.00,,,0.00,Rainwise IP-100,2013-03-23 07:57:00,
2013-03-23 04:02:00,27.4,18.0,29.51,WNW,292,16.1,20.5,67,0.00,,,0.00,Rainwise IP-100,2013-03-23 08:02:00,
2013-03-23 04:07:00,27.4,18.0,29.51,WNW,292,16.6,23.8,67,0.00,,,0.00,Rainwise IP-100,2013-03-23 08:07:00,
2013-03-23 04:12:00,27.4,18.0,29.51,West,270,13.3,22.9,67,0.00,,,0.00,Rainwise IP-100,2013-03-23 08:12:00,
2013-03-23 04:17:00,27.3,18.0,29.51,West,270,17.5,21.5,67,0.00,,,0.00,Rainwise IP-100,2013-03-23 08:17:00,
2013-03-23 04:22:00,27.2,18.0,29.51,WNW,292,10.5,20.3,67,0.00,,,0.00,Rainwise IP-100,2013-03-23 08:22:00,
2013-03-23 04:27:00,27.2,18.0,29.50,WNW,292,12.4,24.0,67,0.00,,,0.00,Rainwise IP-100,2013-03-23 08:27:00,
2013-03-23 04:32:00,27.2,18.0,29.51,WNW,292,14.7,20.8,67,0.00,,,0.00,Rainwise IP-100,2013-03-23 08:32:00,
2013-03-23 04:37:00,27.2,18.0,29.50,West,270,16.3,21.0,67,0.00,,,0.00,Rainwise IP-100,2013-03-23 08:37:00,
2013-03-23 04:42:00,27.1,18.0,29.50,NW,315,16.1,22.9,68,0.00,,,0.00,Rainwise IP-100,2013-03-23 08:42:00,
2013-03-23 04:47:00,27.1,18.0,29.51,West,270,18.7,24.0,68,0.00,,,0.00,Rainwise IP-100,2013-03-23 08:47:00,
2013-03-23 04:52:00,27.1,18.0,29.49,WNW,292,10.0,26.6,68,0.00,,,0.00,Rainwise IP-100,2013-03-23 08:52:00,
2013-03-23 04:57:00,27.1,18.0,29.50,WNW,292,14.5,26.1,68,0.00,,,0.00,Rainwise IP-100,2013-03-23 08:57:00,
2013-03-23 05:02:00,27.1,18.0,29.50,WNW,292,9.3,22.6,68,0.00,,,0.00,Rainwise IP-100,2013-03-23 09:02:00,
2013-03-23 05:07:00,27.0,18.0,29.50,West,270,14.5,20.1,69,0.00,,,0.00,Rainwise IP-100,2013-03-23 09:07:00,
2013-03-23 05:12:00,27.0,18.0,29.50,WNW,292,10.7,23.8,69,0.00,,,0.00,Rainwise IP-100,2013-03-23 09:12:00,
2013-03-23 05:17:00,27.0,18.0,29.49,WNW,292,10.3,22.4,69,0.00,,,0.00,Rainwise IP-100,2013-03-23 09:17:00,
2013-03-23 05:22:00,27.0,18.0,29.49,WNW,292,16.6,27.0,69,0.00,,,0.00,Rainwise IP-100,2013-03-23 09:22:00,
2013-03-23 05:27:00,27.1,18.0,29.49,WNW,292,12.1,22.2,69,0.00,,,0.00,Rainwise IP-100,2013-03-23 09:27:00,
2013-03-23 05:32:00,27.1,18.0,29.49,WNW,292,12.8,22.4,69,0.00,,,0.00,Rainwise IP-100,2013-03-23 09:32:00,
2013-03-23 05:37:00,27.1,18.0,29.49,West,270,16.1,22.4,69,0.00,,,0.00,Rainwise IP-100,2013-03-23 09:37:00,
2013-03-23 05:42:00,27.0,18.0,29.49,West,270,14.5,22.4,69,0.00,,,0.00,Rainwise IP-100,2013-03-23 09:42:00,
2013-03-23 05:47:00,26.9,21.0,29.50,WNW,292,7.2,21.0,70,0.00,,,0.00,Rainwise IP-100,2013-03-23 09:47:00,
2013-03-23 05:52:00,26.8,21.0,29.49,West,270,13.1,19.6,70,0.00,,,0.00,Rainwise IP-100,2013-03-23 09:52:00,
2013-03-23 05:57:00,26.8,21.0,29.49,West,270,16.6,20.8,70,0.00,,,0.00,Rainwise IP-100,2013-03-23 09:57:00,
2013-03-23 06:02:00,26.8,21.0,29.49,WNW,292,13.5,21.5,70,0.00,,,0.00,Rainwise IP-100,2013-03-23 10:02:00,
2013-03-23 06:07:00,26.8,21.0,29.49,NW,315,14.0,24.0,70,0.00,,,0.00,Rainwise IP-100,2013-03-23 10:07:00,
2013-03-23 06:12:00,26.8,21.0,29.49,West,270,18.0,18.9,71,0.00,,,0.00,Rainwise IP-100,2013-03-23 10:12:00,
2013-03-23 06:17:00,26.8,21.0,29.48,WNW,292,14.2,26.8,70,0.00,,,0.00,Rainwise IP-100,2013-03-23 10:17:00,
2013-03-23 06:22:00,27.0,21.0,29.49,WNW,292,10.7,24.5,70,0.00,,,0.00,Rainwise IP-100,2013-03-23 10:22:00,
2013-03-23 06:27:00,27.1,21.0,29.48,WNW,292,23.1,24.7,70,0.00,,,0.00,Rainwise IP-100,2013-03-23 10:27:00,
2013-03-23 06:32:00,27.1,21.0,29.49,West,270,14.9,24.5,70,0.00,,,0.00,Rainwise IP-100,2013-03-23 10:32:00,
2013-03-23 06:37:00,27.1,21.0,29.48,West,270,18.0,21.0,70,0.00,,,0.00,Rainwise IP-100,2013-03-23 10:37:00,
2013-03-23 06:42:00,27.1,21.0,29.49,West,270,12.1,23.6,70,0.00,,,0.00,Rainwise IP-100,2013-03-23 10:42:00,
2013-03-23 06:47:00,27.1,21.0,29.48,West,270,17.5,22.6,70,0.00,,,0.00,Rainwise IP-100,2013-03-23 10:47:00,
2013-03-23 06:52:00,27.3,21.0,29.49,NW,315,11.4,25.4,70,0.00,,,0.00,Rainwise IP-100,2013-03-23 10:52:00,
2013-03-23 06:57:00,27.5,21.0,29.49,WNW,292,11.4,24.7,70,0.00,,,0.00,Rainwise IP-100,2013-03-23 10:57:00,
2013-03-23 07:02:00,27.7,18.0,29.49,West,270,7.7,24.5,69,0.00,,,0.00,Rainwise IP-100,2013-03-23 11:02:00,
2013-03-23 07:07:00,27.9,18.0,29.49,WNW,292,12.6,18.9,69,0.00,,,0.00,Rainwise IP-100,2013-03-23 11:07:00,
2013-03-23 07:12:00,28.1,18.0,29.49,WNW,292,14.7,22.4,69,0.00,,,0.00,Rainwise IP-100,2013-03-23 11:12:00,
2013-03-23 07:18:00,28.2,18.0,29.48,West,270,15.2,24.7,69,0.00,,,0.00,Rainwise IP-100,2013-03-23 11:18:00,
2013-03-23 07:23:00,28.3,18.0,29.48,NW,315,7.7,24.0,69,0.00,,,0.00,Rainwise IP-100,2013-03-23 11:23:00,
2013-03-23 07:28:00,28.3,18.0,29.48,NW,315,16.1,21.0,69,0.00,,,0.00,Rainwise IP-100,2013-03-23 11:28:00,
2013-03-23 07:33:00,28.3,18.0,29.47,West,270,18.9,22.6,69,0.00,,,0.00,Rainwise IP-100,2013-03-23 11:33:00,
2013-03-23 07:38:00,28.4,18.0,29.48,West,270,10.7,21.9,69,0.00,,,0.00,Rainwise IP-100,2013-03-23 11:38:00,
2013-03-23 07:43:00,28.6,21.0,29.48,NW,315,15.2,22.9,69,0.00,,,0.00,Rainwise IP-100,2013-03-23 11:43:00,
2013-03-23 07:48:00,28.7,21.0,29.47,NW,315,10.5,22.9,69,0.00,,,0.00,Rainwise IP-100,2013-03-23 11:48:00,
2013-03-23 07:53:00,28.8,21.0,29.48,West,270,18.7,21.9,69,0.00,,,0.00,Rainwise IP-100,2013-03-23 11:53:00,
2013-03-23 07:58:00,29.1,21.0,29.47,WNW,292,16.6,21.9,68,0.00,,,0.00,Rainwise IP-100,2013-03-23 11:58:00,
2013-03-23 08:03:00,29.2,21.0,29.47,WNW,292,23.8,26.3,68,0.00,,,0.00,Rainwise IP-100,2013-03-23 12:03:00,
2013-03-23 08:08:00,29.5,23.0,29.47,West,270,15.9,29.6,68,0.00,,,0.00,Rainwise IP-100,2013-03-23 12:08:00,
2013-03-23 08:13:00,29.9,21.0,29.47,WNW,292,15.4,22.2,67,0.00,,,0.00,Rainwise IP-100,2013-03-23 12:13:00,
2013-03-23 08:18:00,30.1,21.0,29.47,West,270,13.8,28.4,67,0.00,,,0.00,Rainwise IP-100,2013-03-23 12:18:00,
2013-03-23 08:23:00,30.2,21.0,29.47,NW,315,10.5,25.6,66,0.00,,,0.00,Rainwise IP-100,2013-03-23 12:23:00,
2013-03-23 08:28:00,30.4,21.0,29.47,West,270,13.8,27.7,66,0.00,,,0.00,Rainwise IP-100,2013-03-23 12:28:00,
2013-03-23 08:33:00,30.7,21.0,29.47,West,270,14.9,25.9,66,0.00,,,0.00,Rainwise IP-100,2013-03-23 12:33:00,
2013-03-23 08:38:00,30.8,21.0,29.47,NW,315,10.3,28.7,65,0.00,,,0.00,Rainwise IP-100,2013-03-23 12:38:00,
2013-03-23 08:43:00,31.0,21.0,29.47,WNW,292,11.2,18.4,65,0.00,,,0.00,Rainwise IP-100,2013-03-23 12:43:00,
2013-03-23 08:48:00,31.1,21.0,29.46,WNW,292,16.8,27.3,65,0.00,,,0.00,Rainwise IP-100,2013-03-23 12:48:00,
2013-03-23 08:53:00,31.2,21.0,29.46,WNW,292,10.5,28.0,64,0.00,,,0.00,Rainwise IP-100,2013-03-23 12:53:00,
2013-03-23 08:58:00,31.4,21.0,29.46,West,270,3.7,24.5,64,0.00,,,0.00,Rainwise IP-100,2013-03-23 12:58:00,
2013-03-23 09:03:00,31.6,21.0,29.45,WNW,292,24.7,25.2,63,0.00,,,0.00,Rainwise IP-100,2013-03-23 13:03:00,
2013-03-23 09:08:00,31.8,21.0,29.45,West,270,10.5,25.4,63,0.00,,,0.00,Rainwise IP-100,2013-03-23 13:08:00,
2013-03-23 09:13:00,32.1,21.0,29.45,WNW,292,13.1,23.8,62,0.00,,,0.00,Rainwise IP-100,2013-03-23 13:13:00,
2013-03-23 09:18:00,32.4,21.0,29.45,West,270,23.3,27.3,62,0.00,,,0.00,Rainwise IP-100,2013-03-23 13:18:00,
2013-03-23 09:23:00,32.7,23.0,29.45,WNW,292,13.1,26.8,61,0.00,,,0.00,Rainwise IP-100,2013-03-23 13:23:00,
2013-03-23 09:28:00,32.9,23.0,29.45,NW,315,14.9,22.6,61,0.00,,,0.00,Rainwise IP-100,2013-03-23 13:28:00,
2013-03-23 09:33:00,33.1,21.0,29.44,WNW,292,18.7,35.7,60,0.00,,,0.00,Rainwise IP-100,2013-03-23 13:33:00,
2013-03-23 09:38:00,33.3,21.0,29.43,NW,315,22.9,27.3,59,0.00,,,0.00,Rainwise IP-100,2013-03-23 13:38:00,
2013-03-23 09:43:00,33.3,21.0,29.44,NW,315,12.6,34.5,59,0.00,,,0.00,Rainwise IP-100,2013-03-23 13:43:00,
2013-03-23 09:48:00,33.3,21.0,29.44,NW,315,23.1,27.3,59,0.00,,,0.00,Rainwise IP-100,2013-03-23 13:48:00,
2013-03-23 09:53:00,33.5,23.0,29.43,WNW,292,12.6,28.4,59,0.00,,,0.00,Rainwise IP-100,2013-03-23 13:53:00,
2013-03-23 09:58:00,33.7,23.0,29.43,West,270,21.0,24.0,58,0.00,,,0.00,Rainwise IP-100,2013-03-23 13:58:00,
2013-03-23 10:03:00,33.7,23.0,29.43,NW,315,21.7,27.3,58,0.00,,,0.00,Rainwise IP-100,2013-03-23 14:03:00,
2013-03-23 10:08:00,33.7,23.0,29.43,NW,315,20.3,25.9,58,0.00,,,0.00,Rainwise IP-100,2013-03-23 14:08:00,
2013-03-23 10:13:00,33.8,23.0,29.43,West,270,32.4,32.4,58,0.00,,,0.00,Rainwise IP-100,2013-03-23 14:13:00,
2013-03-23 10:18:00,33.9,23.0,29.43,WNW,292,19.4,32.9,58,0.00,,,0.00,Rainwise IP-100,2013-03-23 14:18:00,
2013-03-23 10:23:00,34.1,23.0,29.43,NW,315,12.8,22.9,58,0.00,,,0.00,Rainwise IP-100,2013-03-23 14:23:00,
2013-03-23 10:28:00,34.4,21.0,29.43,WNW,292,21.7,27.3,57,0.00,,,0.00,Rainwise IP-100,2013-03-23 14:28:00,
2013-03-23 10:33:00,34.5,21.0,29.43,WNW,292,20.1,27.3,57,0.00,,,0.00,Rainwise IP-100,2013-03-23 14:33:00,
2013-03-23 10:38:00,34.6,21.0,29.43,West,270,17.5,27.5,57,0.00,,,0.00,Rainwise IP-100,2013-03-23 14:38:00,
2013-03-23 10:43:00,34.7,21.0,29.43,WNW,292,19.1,28.7,56,0.00,,,0.00,Rainwise IP-100,2013-03-23 14:43:00,
2013-03-23 10:48:00,34.7,21.0,29.42,WNW,292,15.2,29.1,56,0.00,,,0.00,Rainwise IP-100,2013-03-23 14:48:00,
2013-03-23 10:53:00,34.8,21.0,29.43,West,270,17.0,27.3,56,0.00,,,0.00,Rainwise IP-100,2013-03-23 14:53:00,
2013-03-23 10:58:00,35.0,21.0,29.43,West,270,17.7,26.3,55,0.00,,,0.00,Rainwise IP-100,2013-03-23 14:58:00,
2013-03-23 11:03:00,35.1,21.0,29.43,NW,315,14.7,29.4,55,0.00,,,0.00,Rainwise IP-100,2013-03-23 15:03:00,
2013-03-23 11:08:00,35.1,21.0,29.42,West,270,14.2,26.3,56,0.00,,,0.00,Rainwise IP-100,2013-03-23 15:08:00,
2013-03-23 11:13:00,35.3,21.0,29.42,WNW,292,11.2,20.3,56,0.00,,,0.00,Rainwise IP-100,2013-03-23 15:13:00,
2013-03-23 11:18:00,35.7,23.0,29.42,NW,315,21.5,22.6,55,0.00,,,0.00,Rainwise IP-100,2013-03-23 15:18:00,
2013-03-23 11:23:00,36.1,23.0,29.42,WNW,292,13.8,23.1,55,0.00,,,0.00,Rainwise IP-100,2013-03-23 15:23:00,
2013-03-23 11:28:00,36.3,21.0,29.41,WNW,292,16.6,25.6,54,0.00,,,0.00,Rainwise IP-100,2013-03-23 15:28:00,
2013-03-23 11:33:00,36.4,21.0,29.41,WNW,292,13.8,23.6,54,0.00,,,0.00,Rainwise IP-100,2013-03-23 15:33:00,
2013-03-23 11:38:00,36.8,23.0,29.42,WNW,292,14.7,21.2,53,0.00,,,0.00,Rainwise IP-100,2013-03-23 15:38:00,
2013-03-23 11:43:00,37.2,21.0,29.41,WNW,292,12.4,21.2,52,0.00,,,0.00,Rainwise IP-100,2013-03-23 15:43:00,
2013-03-23 11:48:00,37.5,23.0,29.41,West,270,14.5,19.1,51,0.00,,,0.00,Rainwise IP-100,2013-03-23 15:48:00,
2013-03-23 11:53:00,37.9,23.0,29.41,NNW,337,15.9,22.4,51,0.00,,,0.00,Rainwise IP-100,2013-03-23 15:53:00,
2013-03-23 11:58:00,38.2,23.0,29.41,WNW,292,16.3,24.2,50,0.00,,,0.00,Rainwise IP-100,2013-03-23 15:58:00,
2013-03-23 12:03:00,37.9,21.0,29.41,WNW,292,17.0,26.6,49,0.00,,,0.00,Rainwise IP-100,2013-03-23 16:03:00,
2013-03-23 12:08:00,37.8,21.0,29.41,NW,315,14.9,22.9,49,0.00,,,0.00,Rainwise IP-100,2013-03-23 16:08:00,
2013-03-23 12:13:00,37.9,23.0,29.41,NW,315,9.8,20.3,50,0.00,,,0.00,Rainwise IP-100,2013-03-23 16:13:00,
2013-03-23 12:18:00,38.0,23.0,29.41,West,270,20.1,22.2,50,0.00,,,0.00,Rainwise IP-100,2013-03-23 16:18:00,
2013-03-23 12:23:00,38.0,23.0,29.41,West,270,18.0,23.6,50,0.00,,,0.00,Rainwise IP-100,2013-03-23 16:23:00,
2013-03-23 12:28:00,37.9,21.0,29.41,NW,315,11.0,24.7,49,0.00,,,0.00,Rainwise IP-100,2013-03-23 16:28:00,
2013-03-23 12:33:00,38.0,21.0,29.41,NW,315,16.3,19.6,49,0.00,,,0.00,Rainwise IP-100,2013-03-23 16:33:00,
2013-03-23 12:38:00,38.3,21.0,29.40,West,270,9.8,21.0,49,0.00,,,0.00,Rainwise IP-100,2013-03-23 16:38:00,
2013-03-23 12:43:00,38.4,21.0,29.41,NW,315,15.6,22.9,49,0.00,,,0.00,Rainwise IP-100,2013-03-23 16:43:00,
2013-03-23 12:48:00,38.4,21.0,29.40,NW,315,8.9,19.4,49,0.00,,,0.00,Rainwise IP-100,2013-03-23 16:48:00,
2013-03-23 12:53:00,38.4,21.0,29.40,NNW,337,18.4,27.3,49,0.00,,,0.00,Rainwise IP-100,2013-03-23 16:53:00,
2013-03-23 12:58:00,38.6,23.0,29.41,NNW,337,13.8,24.2,49,0.00,,,0.00,Rainwise IP-100,2013-03-23 16:58:00,
2013-03-23 13:03:00,38.5,23.0,29.40,NNW,337,8.4,32.4,49,0.00,,,0.00,Rainwise IP-100,2013-03-23 17:03:00,
2013-03-23 13:08:00,38.5,23.0,29.40,North,0,8.4,30.8,51,0.00,,,0.00,Rainwise IP-100,2013-03-23 17:08:00,
2013-03-23 13:13:00,38.7,23.0,29.41,NNW,337,18.0,19.6,52,0.00,,,0.00,Rainwise IP-100,2013-03-23 17:13:00,
2013-03-23 13:18:00,39.1,23.0,29.40,NNW,337,17.0,25.6,52,0.00,,,0.00,Rainwise IP-100,2013-03-23 17:18:00,
2013-03-23 13:23:00,38.9,23.0,29.40,NW,315,17.5,26.1,50,0.00,,,0.00,Rainwise IP-100,2013-03-23 17:23:00,
2013-03-23 13:28:00,38.6,23.0,29.41,NW,315,10.0,23.3,49,0.00,,,0.00,Rainwise IP-100,2013-03-23 17:28:00,
2013-03-23 13:33:00,38.7,23.0,29.40,NNW,337,13.1,24.7,51,0.00,,,0.00,Rainwise IP-100,2013-03-23 17:33:00,
2013-03-23 13:38:00,38.6,23.0,29.41,North,0,4.9,22.6,51,0.00,,,0.00,Rainwise IP-100,2013-03-23 17:38:00,
2013-03-23 13:43:00,38.6,23.0,29.40,NNW,337,16.1,22.2,51,0.00,,,0.00,Rainwise IP-100,2013-03-23 17:43:00,
2013-03-23 13:48:00,38.6,24.0,29.41,NNW,337,5.8,24.5,53,0.00,,,0.00,Rainwise IP-100,2013-03-23 17:48:00,
2013-03-23 13:53:00,38.4,23.0,29.40,NW,315,23.3,25.6,53,0.00,,,0.00,Rainwise IP-100,2013-03-23 17:53:00,
2013-03-23 13:58:00,38.3,23.0,29.41,NNW,337,18.7,23.3,52,0.00,,,0.00,Rainwise IP-100,2013-03-23 17:58:00,
2013-03-23 14:03:00,38.2,23.0,29.41,NNW,337,14.9,26.6,51,0.00,,,0.00,Rainwise IP-100,2013-03-23 18:03:00,
2013-03-23 14:08:00,38.2,23.0,29.41,NNW,337,18.0,21.9,51,0.00,,,0.00,Rainwise IP-100,2013-03-23 18:08:00,
2013-03-23 14:13:00,38.1,23.0,29.41,NE,45,5.8,22.9,53,0.00,,,0.00,Rainwise IP-100,2013-03-23 18:13:00,
2013-03-23 14:18:00,38.0,23.0,29.41,NNW,337,18.9,28.2,54,0.00,,,0.00,Rainwise IP-100,2013-03-23 18:18:00,
2013-03-23 14:23:00,38.0,24.0,29.41,NW,315,22.9,27.0,55,0.00,,,0.00,Rainwise IP-100,2013-03-23 18:23:00,
2013-03-23 14:28:00,37.9,23.0,29.41,NW,315,17.0,25.9,53,0.00,,,0.00,Rainwise IP-100,2013-03-23 18:28:00,
2013-03-23 14:34:00,38.0,23.0,29.41,North,0,9.8,24.0,52,0.00,,,0.00,Rainwise IP-100,2013-03-23 18:34:00,
2013-03-23 14:39:00,38.1,23.0,29.41,NW,315,20.1,23.8,51,0.00,,,0.00,Rainwise IP-100,2013-03-23 18:39:00,
2013-03-23 14:44:00,38.2,23.0,29.42,NW,315,16.8,24.7,50,0.00,,,0.00,Rainwise IP-100,2013-03-23 18:44:00,
2013-03-23 14:49:00,38.3,21.0,29.42,NW,315,17.3,24.5,49,0.00,,,0.00,Rainwise IP-100,2013-03-23 18:49:00,
2013-03-23 14:54:00,38.3,21.0,29.42,WNW,292,13.1,21.9,49,0.00,,,0.00,Rainwise IP-100,2013-03-23 18:54:00,
2013-03-23 14:59:00,38.4,21.0,29.43,WNW,292,12.8,19.1,49,0.00,,,0.00,Rainwise IP-100,2013-03-23 18:59:00,
2013-03-23 15:04:00,38.5,23.0,29.43,NW,315,10.5,24.5,48,0.00,,,0.00,Rainwise IP-100,2013-03-23 19:04:00,
2013-03-23 15:09:00,38.4,21.0,29.43,NNW,337,13.8,23.8,48,0.00,,,0.00,Rainwise IP-100,2013-03-23 19:09:00,
2013-03-23 15:14:00,38.4,21.0,29.43,NNW,337,12.4,23.3,49,0.00,,,0.00,Rainwise IP-100,2013-03-23 19:14:00,
2013-03-23 15:19:00,38.5,23.0,29.43,NW,315,14.0,20.8,50,0.00,,,0.00,Rainwise IP-100,2013-03-23 19:19:00,
2013-03-23 15:24:00,38.7,23.0,29.44,NW,315,11.7,21.0,50,0.00,,,0.00,Rainwise IP-100,2013-03-23 19:24:00,
2013-03-23 15:29:00,38.8,23.0,29.42,NW,315,21.0,23.6,50,0.00,,,0.00,Rainwise IP-100,2013-03-23 19:29:00,
2013-03-23 15:34:00,38.8,23.0,29.43,NW,315,21.7,24.7,51,0.00,,,0.00,Rainwise IP-100,2013-03-23 19:34:00,
2013-03-23 15:39:00,38.7,23.0,29.43,NNW,337,11.4,23.1,52,0.00,,,0.00,Rainwise IP-100,2013-03-23 19:39:00,
2013-03-23 15:44:00,38.7,23.0,29.43,NNW,337,20.3,27.7,52,0.00,,,0.00,Rainwise IP-100,2013-03-23 19:44:00,
2013-03-23 15:49:00,38.6,24.0,29.44,NNW,337,4.9,26.1,53,0.00,,,0.00,Rainwise IP-100,2013-03-23 19:49:00,
2013-03-23 15:54:00,38.4,23.0,29.45,NNW,337,14.7,25.6,54,0.00,,,0.00,Rainwise IP-100,2013-03-23 19:54:00,
2013-03-23 15:59:00,38.3,24.0,29.44,NNW,337,16.1,31.9,55,0.00,,,0.00,Rainwise IP-100,2013-03-23 19:59:00,
2013-03-23 16:04:00,38.3,24.0,29.45,East,90,0.0,22.9,55,0.00,,,0.00,Rainwise IP-100,2013-03-23 20:04:00,
2013-03-23 16:09:00,38.3,24.0,29.44,NNW,337,13.8,19.1,57,0.00,,,0.00,Rainwise IP-100,2013-03-23 20:09:00,
2013-03-23 16:14:00,38.2,24.0,29.45,NNW,337,11.4,22.9,58,0.00,,,0.00,Rainwise IP-100,2013-03-23 20:14:00,
2013-03-23 16:19:00,38.2,24.0,29.45,SSW,202,3.7,17.7,58,0.00,,,0.00,Rainwise IP-100,2013-03-23 20:19:00,
2013-03-23 16:24:00,38.0,26.0,29.46,WNW,292,0.0,9.6,60,0.00,,,0.00,Rainwise IP-100,2013-03-23 20:24:00,
2013-03-23 16:29:00,37.7,26.0,29.46,NNW,337,1.2,3.7,63,0.00,,,0.00,Rainwise IP-100,2013-03-23 20:29:00,
2013-03-23 16:34:00,37.5,28.0,29.46,ENE,67,1.2,6.5,65,0.00,,,0.00,Rainwise IP-100,2013-03-23 20:34:00,
2013-03-23 16:39:00,37.5,28.0,29.45,NNW,337,19.1,21.9,65,0.00,,,0.00,Rainwise IP-100,2013-03-23 20:39:00,
2013-03-23 16:44:00,37.6,28.0,29.45,NNW,337,7.7,25.9,64,0.00,,,0.00,Rainwise IP-100,2013-03-23 20:44:00,
2013-03-23 16:49:00,37.7,28.0,29.47,NE,45,2.8,23.3,64,0.00,,,0.00,Rainwise IP-100,2013-03-23 20:49:00,
2013-03-23 16:54:00,37.7,28.0,29.46,SW,225,1.6,24.9,65,0.00,,,0.00,Rainwise IP-100,2013-03-23 20:54:00,
2013-03-23 16:59:00,37.6,28.0,29.47,NNW,337,4.9,21.5,66,0.00,,,0.00,Rainwise IP-100,2013-03-23 20:59:00,
2013-03-23 17:04:00,37.5,28.0,29.47,NNE,22,4.4,22.2,67,0.00,,,0.00,Rainwise IP-100,2013-03-23 21:04:00,
2013-03-23 17:09:00,37.4,28.0,29.47,NNW,337,14.7,16.8,67,0.00,,,0.00,Rainwise IP-100,2013-03-23 21:09:00,
2013-03-23 17:14:00,37.4,28.0,29.48,West,270,12.1,21.5,68,0.00,,,0.00,Rainwise IP-100,2013-03-23 21:14:00,
2013-03-23 17:19:00,37.2,28.0,29.47,NNW,337,21.9,22.4,68,0.00,,,0.00,Rainwise IP-100,2013-03-23 21:19:00,
2013-03-23 17:24:00,37.1,28.0,29.48,NNW,337,21.0,25.4,68,0.00,,,0.00,Rainwise IP-100,2013-03-23 21:24:00,
2013-03-23 17:29:00,37.1,28.0,29.49,NE,45,2.1,27.0,67,0.00,,,0.00,Rainwise IP-100,2013-03-23 21:29:00,
2013-03-23 17:34:00,36.9,28.0,29.48,NNW,337,18.2,27.3,67,0.00,,,0.00,Rainwise IP-100,2013-03-23 21:34:00,
2013-03-23 17:39:00,36.4,26.0,29.48,NW,315,24.7,27.3,69,0.00,,,0.00,Rainwise IP-100,2013-03-23 21:39:00,
2013-03-23 17:44:00,35.8,28.0,29.49,NNW,337,7.2,26.6,70,0.00,,,0.00,Rainwise IP-100,2013-03-23 21:44:00,
2013-03-23 17:49:00,35.6,28.0,29.49,NNW,337,16.8,22.6,71,0.00,,,0.00,Rainwise IP-100,2013-03-23 21:49:00,
2013-03-23 17:54:00,35.6,28.0,29.50,NNW,337,20.1,24.2,72,0.00,,,0.00,Rainwise IP-100,2013-03-23 21:54:00,
2013-03-23 17:59:00,35.5,28.0,29.49,NNW,337,15.9,22.2,72,0.00,,,0.00,Rainwise IP-100,2013-03-23 21:59:00,
2013-03-23 18:04:00,35.3,26.0,29.49,NNW,337,23.8,27.7,72,0.00,,,0.00,Rainwise IP-100,2013-03-23 22:04:00,
2013-03-23 18:09:00,35.2,26.0,29.50,NNW,337,20.5,29.1,72,0.00,,,0.00,Rainwise IP-100,2013-03-23 22:09:00,
2013-03-23 18:14:00,35.2,26.0,29.49,NNW,337,14.5,26.1,72,0.00,,,0.00,Rainwise IP-100,2013-03-23 22:14:00,
2013-03-23 18:19:00,35.3,26.0,29.50,WNW,292,13.8,21.7,71,0.00,,,0.00,Rainwise IP-100,2013-03-23 22:19:00,
2013-03-23 18:24:00,35.3,26.0,29.50,NW,315,11.9,22.4,71,0.00,,,0.00,Rainwise IP-100,2013-03-23 22:24:00,
2013-03-23 18:29:00,35.2,26.0,29.50,NW,315,16.3,20.8,70,0.00,,,0.00,Rainwise IP-100,2013-03-23 22:29:00,
2013-03-23 18:34:00,35.3,26.0,29.50,NW,315,9.8,19.6,70,0.00,,,0.00,Rainwise IP-100,2013-03-23 22:34:00,
2013-03-23 18:39:00,35.3,26.0,29.50,WNW,292,17.3,18.0,70,0.00,,,0.00,Rainwise IP-100,2013-03-23 22:39:00,
2013-03-23 18:44:00,35.3,26.0,29.50,West,270,12.1,19.4,69,0.00,,,0.00,Rainwise IP-100,2013-03-23 22:44:00,
2013-03-23 18:49:00,35.3,26.0,29.49,NNW,337,18.4,26.3,68,0.00,,,0.00,Rainwise IP-100,2013-03-23 22:49:00,
2013-03-23 18:54:00,35.5,26.0,29.50,NNW,337,12.8,24.0,67,0.00,,,0.00,Rainwise IP-100,2013-03-23 22:54:00,
2013-03-23 18:59:00,35.7,26.0,29.50,North,0,5.4,25.9,66,0.00,,,0.00,Rainwise IP-100,2013-03-23 22:59:00,
2013-03-23 19:04:00,35.9,26.0,29.49,NNW,337,18.9,26.3,65,0.00,,,0.00,Rainwise IP-100,2013-03-23 23:04:00,
2013-03-23 19:09:00,36.1,24.0,29.50,NNW,337,10.5,31.7,64,0.00,,,0.00,Rainwise IP-100,2013-03-23 23:09:00,
2013-03-23 19:14:00,36.2,24.0,29.51,NW,315,17.3,26.6,64,0.00,,,0.00,Rainwise IP-100,2013-03-23 23:14:00,
2013-03-23 19:19:00,36.0,26.0,29.50,NW,315,12.4,21.9,65,0.00,,,0.00,Rainwise IP-100,2013-03-23 23:19:00,
2013-03-23 19:24:00,35.8,26.0,29.51,WNW,292,17.0,22.4,65,0.00,,,0.00,Rainwise IP-100,2013-03-23 23:24:00,
2013-03-23 19:29:00,35.6,24.0,29.49,WNW,292,15.9,19.1,64,0.00,,,0.00,Rainwise IP-100,2013-03-23 23:29:00,
2013-03-23 19:34:00,35.5,24.0,29.51,NW,315,11.7,19.1,64,0.00,,,0.00,Rainwise IP-100,2013-03-23 23:34:00,
2013-03-23 19:39:00,35.4,24.0,29.51,WNW,292,14.0,18.9,65,0.00,,,0.00,Rainwise IP-100,2013-03-23 23:39:00,
2013-03-23 19:44:00,35.4,24.0,29.51,West,270,14.5,25.4,64,0.00,,,0.00,Rainwise IP-100,2013-03-23 23:44:00,
2013-03-23 19:49:00,35.5,24.0,29.51,WNW,292,11.7,20.5,64,0.00,,,0.00,Rainwise IP-100,2013-03-23 23:49:00,
2013-03-23 19:54:00,35.6,24.0,29.51,NW,315,7.2,21.9,64,0.00,,,0.00,Rainwise IP-100,2013-03-23 23:54:00,
2013-03-23 19:59:00,35.6,24.0,29.51,NW,315,14.7,20.1,64,0.00,,,0.00,Rainwise IP-100,2013-03-23 23:59:00,
2013-03-23 20:04:00,35.6,24.0,29.51,WNW,292,13.5,22.2,63,0.00,,,0.00,Rainwise IP-100,2013-03-24 00:04:00,
2013-03-23 20:09:00,35.6,24.0,29.51,WNW,292,14.9,21.7,63,0.00,,,0.00,Rainwise IP-100,2013-03-24 00:09:00,
2013-03-23 20:14:00,35.6,24.0,29.51,West,270,19.8,22.9,63,0.00,,,0.00,Rainwise IP-100,2013-03-24 00:14:00,
2013-03-23 20:19:00,35.7,24.0,29.52,WNW,292,13.5,22.4,63,0.00,,,0.00,Rainwise IP-100,2013-03-24 00:19:00,
2013-03-23 20:24:00,35.7,24.0,29.51,WNW,292,12.6,25.2,63,0.00,,,0.00,Rainwise IP-100,2013-03-24 00:24:00,
2013-03-23 20:29:00,35.7,24.0,29.52,West,270,18.9,21.7,63,0.00,,,0.00,Rainwise IP-100,2013-03-24 00:29:00,
2013-03-23 20:34:00,35.7,24.0,29.52,WNW,292,18.0,21.0,63,0.00,,,0.00,Rainwise IP-100,2013-03-24 00:34:00,
2013-03-23 20:39:00,35.8,24.0,29.51,West,270,13.3,22.4,63,0.00,,,0.00,Rainwise IP-100,2013-03-24 00:39:00,
2013-03-23 20:44:00,35.9,24.0,29.51,WNW,292,11.9,21.0,63,0.00,,,0.00,Rainwise IP-100,2013-03-24 00:44:00,
2013-03-23 20:49:00,35.9,24.0,29.52,WNW,292,12.8,24.7,63,0.00,,,0.00,Rainwise IP-100,2013-03-24 00:49:00,
2013-03-23 20:54:00,35.9,24.0,29.52,WNW,292,20.1,21.5,63,0.00,,,0.00,Rainwise IP-100,2013-03-24 00:54:00,
2013-03-23 20:59:00,35.9,24.0,29.52,NW,315,14.9,24.2,63,0.00,,,0.00,Rainwise IP-100,2013-03-24 00:59:00,
2013-03-23 21:04:00,35.9,24.0,29.51,WNW,292,16.8,24.7,63,0.00,,,0.00,Rainwise IP-100,2013-03-24 01:04:00,
2013-03-23 21:09:00,35.9,24.0,29.51,WNW,292,15.9,24.9,63,0.00,,,0.00,Rainwise IP-100,2013-03-24 01:09:00,
2013-03-23 21:14:00,35.9,24.0,29.51,NW,315,16.3,24.7,63,0.00,,,0.00,Rainwise IP-100,2013-03-24 01:14:00,
2013-03-23 21:19:00,35.9,24.0,29.52,West,270,14.9,28.9,63,0.00,,,0.00,Rainwise IP-100,2013-03-24 01:19:00,
2013-03-23 21:24:00,35.9,24.0,29.52,NW,315,13.3,28.9,63,0.00,,,0.00,Rainwise IP-100,2013-03-24 01:24:00,
2013-03-23 21:29:00,36.0,24.0,29.53,WNW,292,14.5,22.9,63,0.00,,,0.00,Rainwise IP-100,2013-03-24 01:29:00,
2013-03-23 21:34:00,36.0,24.0,29.52,NW,315,14.5,22.4,64,0.00,,,0.00,Rainwise IP-100,2013-03-24 01:34:00,
2013-03-23 21:40:00,36.0,24.0,29.53,WNW,292,19.6,19.8,64,0.00,,,0.00,Rainwise IP-100,2013-03-24 01:40:00,
2013-03-23 21:45:00,36.0,24.0,29.52,WNW,292,11.4,22.6,64,0.00,,,0.00,Rainwise IP-100,2013-03-24 01:45:00,
2013-03-23 21:50:00,36.0,24.0,29.53,West,270,16.3,23.1,64,0.00,,,0.00,Rainwise IP-100,2013-03-24 01:50:00,
2013-03-23 21:55:00,36.1,24.0,29.53,WNW,292,19.4,21.9,64,0.00,,,0.00,Rainwise IP-100,2013-03-24 01:55:00,
2013-03-23 22:00:00,36.0,24.0,29.52,WNW,292,14.5,19.4,64,0.00,,,0.00,Rainwise IP-100,2013-03-24 02:00:00,
2013-03-23 22:05:00,36.0,24.0,29.53,NW,315,10.0,25.6,64,0.00,,,0.00,Rainwise IP-100,2013-03-24 02:05:00,
2013-03-23 22:10:00,36.0,24.0,29.52,WNW,292,18.9,21.5,64,0.00,,,0.00,Rainwise IP-100,2013-03-24 02:10:00,
2013-03-23 22:15:00,36.0,24.0,29.53,NW,315,11.4,18.9,64,0.00,,,0.00,Rainwise IP-100,2013-03-24 02:15:00,
2013-03-23 22:20:00,35.9,24.0,29.53,NW,315,9.3,24.2,64,0.00,,,0.00,Rainwise IP-100,2013-03-24 02:20:00,
2013-03-23 22:25:00,35.8,24.0,29.52,West,270,15.4,18.4,64,0.00,,,0.00,Rainwise IP-100,2013-03-24 02:25:00,
2013-03-23 22:30:00,35.7,24.0,29.53,NW,315,10.5,23.1,64,0.00,,,0.00,Rainwise IP-100,2013-03-24 02:30:00,
2013-03-23 22:35:00,35.7,26.0,29.53,NW,315,14.2,20.3,65,0.00,,,0.00,Rainwise IP-100,2013-03-24 02:35:00,
2013-03-23 22:40:00,35.7,26.0,29.53,NNW,337,14.7,18.7,65,0.00,,,0.00,Rainwise IP-100,2013-03-24 02:40:00,
2013-03-23 22:45:00,35.7,26.0,29.53,NW,315,12.6,22.9,65,0.00,,,0.00,Rainwise IP-100,2013-03-24 02:45:00,
2013-03-23 22:50:00,35.6,26.0,29.53,West,270,22.4,24.2,65,0.00,,,0.00,Rainwise IP-100,2013-03-24 02:50:00,
2013-03-23 22:55:00,35.6,26.0,29.52,WNW,292,18.7,22.9,66,0.00,,,0.00,Rainwise IP-100,2013-03-24 02:55:00,
2013-03-23 23:00:00,35.6,26.0,29.53,NW,315,10.3,23.6,66,0.00,,,0.00,Rainwise IP-100,2013-03-24 03:00:00,
2013-03-23 23:05:00,35.6,26.0,29.53,NW,315,11.7,21.9,66,0.00,,,0.00,Rainwise IP-100,2013-03-24 03:05:00,
2013-03-23 23:10:00,35.6,26.0,29.53,West,270,15.9,18.4,66,0.00,,,0.00,Rainwise IP-100,2013-03-24 03:10:00,
2013-03-23 23:15:00,35.5,26.0,29.52,WNW,292,22.4,26.6,66,0.00,,,0.00,Rainwise IP-100,2013-03-24 03:15:00,
2013-03-23 23:20:00,35.5,26.0,29.53,WNW,292,16.3,23.8,66,0.00,,,0.00,Rainwise IP-100,2013-03-24 03:20:00,
2013-03-23 23:25:00,35.4,24.0,29.53,NW,315,13.8,21.2,67,0.00,,,0.00,Rainwise IP-100,2013-03-24 03:25:00,
2013-03-23 23:30:00,35.3,24.0,29.53,NW,315,10.0,22.2,67,0.00,,,0.00,Rainwise IP-100,2013-03-24 03:30:00,
2013-03-23 23:35:00,35.2,24.0,29.53,NW,315,15.2,21.9,67,0.00,,,0.00,Rainwise IP-100,2013-03-24 03:35:00,
2013-03-23 23:40:00,35.2,24.0,29.53,WNW,292,16.6,20.8,67,0.00,,,0.00,Rainwise IP-100,2013-03-24 03:40:00,
2013-03-23 23:45:00,35.2,24.0,29.54,NW,315,9.8,21.0,67,0.00,,,0.00,Rainwise IP-100,2013-03-24 03:45:00,
2013-03-23 23:50:00,35.1,26.0,29.53,WNW,292,15.2,18.9,68,0.00,,,0.00,Rainwise IP-100,2013-03-24 03:50:00,
2013-03-23 23:55:00,35.0,26.0,29.53,NW,315,11.9,25.2,68,0.00,,,0.00,Rainwise IP-100,2013-03-24 03:55:00,